Time,TemperatureF,DewpointF,PressureIn,WindDirection,WindDirectionDegrees,WindSpeedMPH,WindSpeedGustMPH,Humidity,HourlyPrecipIn,Conditions,Clouds,dailyrainin,SoftwareType,DateUTC
2013-04-01 00:09:00,64.1,62.0,30.05,ESE,113,0.0,0.0,93,0.00,,,0.00,weatherlink.com 1.10,2013-04-01 04:09:00,
2013-04-01 00:25:00,63.7,62.0,30.05,ESE,113,0.0,0.0,93,0.00,,,0.00,weatherlink.com 1.10,2013-04-01 04:25:00,
2013-04-01 00:40:00,63.7,62.0,30.05,ESE,113,0.0,0.0,94,0.00,,,0.00,weatherlink.com 1.10,2013-04-01 04:40:00,
2013-04-01 00:55:00,63.4,62.0,30.05,ESE,113,0.0,0.0,94,0.00,,,0.00,weatherlink.com 1.10,2013-04-01 04:55:00,
2013-04-01 01:10:00,63.4,62.0,30.04,ESE,113,0.0,0.0,94,0.00,,,0.00,weatherlink.com 1.10,2013-04-01 05:10:00,
2013-04-01 01:25:00,63.3,62.0,30.04,ESE,113,0.0,0.0,94,0.00,,,0.00,weatherlink.com 1.10,2013-04-01 05:25:00,
2013-04-01 01:40:00,63.5,62.0,30.03,ESE,113,0.0,0.0,94,0.00,,,0.00,weatherlink.com 1.10,2013-04-01 05:40:00,
2013-04-01 01:55:00,64.0,62.0,30.02,ESE,113,0.0,0.0,94,0.00,,,0.00,weatherlink.com 1.10,2013-04-01 05:55:00,
2013-04-01 02:10:00,64.8,63.0,30.02,ESE,113,0.0,0.0,94,0.00,,,0.00,weatherlink.com 1.10,2013-04-01 06:10:00,
2013-04-01 02:25:00,66.0,64.0,30.01,ESE,113,0.0,0.0,94,0.00,,,0.00,weatherlink.com 1.10,2013-04-01 06:25:00,
2013-04-01 02:40:00,66.2,65.0,30.01,ESE,113,0.0,0.0,94,0.00,,,0.00,weatherlink.com 1.10,2013-04-01 06:40:00,
2013-04-01 02:55:00,66.0,64.0,30.00,ESE,113,0.0,0.0,94,0.00,,,0.00,weatherlink.com 1.10,2013-04-01 06:55:00,
2013-04-01 03:10:00,65.8,64.0,30.00,ESE,113,0.0,0.0,94,0.00,,,0.00,weatherlink.com 1.10,2013-04-01 07:10:00,
2013-04-01 03:25:00,66.0,65.0,30.00,ESE,113,0.0,0.0,95,0.00,,,0.00,weatherlink.com 1.10,2013-04-01 07:25:00,
2013-04-01 03:40:00,66.5,65.0,30.00,ESE,113,0.0,0.0,95,0.00,,,0.00,weatherlink.com 1.10,2013-04-01 07:40:00,
2013-04-01 03:55:00,66.9,66.0,30.00,ESE,113,0.0,0.0,95,0.00,,,0.00,weatherlink.com 1.10,2013-04-01 07:55:00,
2013-04-01 04:10:00,67.2,66.0,30.00,ESE,113,0.0,0.0,95,0.00,,,0.00,weatherlink.com 1.10,2013-04-01 08:10:00,
2013-04-01 04:25:00,67.5,66.0,29.99,ESE,113,0.0,0.0,95,0.00,,,0.00,weatherlink.com 1.10,2013-04-01 08:25:00,
2013-04-01 04:40:00,67.7,66.0,29.99,ESE,113,0.0,0.0,95,0.00,,,0.00,weatherlink.com 1.10,2013-04-01 08:40:00,
2013-04-01 04:55:00,68.1,66.0,29.99,ESE,113,0.0,0.0,94,0.00,,,0.00,weatherlink.com 1.10,2013-04-01 08:55:00,
2013-04-01 05:10:00,67.8,66.0,30.00,ESE,113,0.0,0.0,94,0.00,,,0.00,weatherlink.com 1.10,2013-04-01 09:10:00,
2013-04-01 05:25:00,67.5,66.0,30.00,ESE,113,0.0,0.0,94,0.00,,,0.00,weatherlink.com 1.10,2013-04-01 09:25:00,
2013-04-01 05:40:00,67.0,65.0,30.00,ESE,113,0.0,0.0,94,0.00,,,0.00,weatherlink.com 1.10,2013-04-01 09:40:00,
2013-04-01 05:55:00,66.8,65.0,30.00,ESE,113,0.0,0.0,95,0.00,,,0.00,weatherlink.com 1.10,2013-04-01 09:55:00,
2013-04-01 06:10:00,67.1,66.0,30.00,ESE,113,0.0,0.0,95,0.00,,,0.00,weatherlink.com 1.10,2013-04-01 10:10:00,
2013-04-01 06:25:00,66.9,66.0,30.00,ESE,113,0.0,0.0,95,0.00,,,0.00,weatherlink.com 1.10,2013-04-01 10:25:00,
2013-04-01 06:40:00,66.4,65.0,30.00,ESE,113,0.0,0.0,95,0.00,,,0.00,weatherlink.com 1.10,2013-04-01 10:40:00,
2013-04-01 06:55:00,66.8,65.0,30.01,ESE,113,0.0,0.0,95,0.00,,,0.00,weatherlink.com 1.10,2013-04-01 10:55:00,
2013-04-01 07:10:00,66.6,65.0,30.01,ESE,113,0.0,0.0,95,0.00,,,0.00,weatherlink.com 1.10,2013-04-01 11:10:00,
2013-04-01 07:25:00,66.7,65.0,30.00,ESE,113,0.0,0.0,95,0.00,,,0.00,weatherlink.com 1.10,2013-04-01 11:25:00,
2013-04-01 07:40:00,66.8,65.0,30.01,ESE,113,0.0,0.0,95,0.00,,,0.00,weatherlink.com 1.10,2013-04-01 11:40:00,
2013-04-01 07:55:00,67.3,66.0,30.02,ESE,113,0.0,0.0,95,0.00,,,0.00,weatherlink.com 1.10,2013-04-01 11:55:00,
2013-04-01 08:10:00,67.8,66.0,30.03,ESE,113,0.0,0.0,95,0.00,,,0.00,weatherlink.com 1.10,2013-04-01 12:10:00,
2013-04-01 08:25:00,68.7,67.0,30.04,ESE,113,0.0,0.0,95,0.00,,,0.00,weatherlink.com 1.10,2013-04-01 12:25:00,
2013-04-01 08:40:00,70.0,69.0,30.04,SE,125,0.0,0.0,95,0.00,,,0.00,weatherlink.com 1.10,2013-04-01 12:40:00,
2013-04-01 08:55:00,71.4,70.0,30.05,ESE,117,0.0,1.0,94,0.00,,,0.00,weatherlink.com 1.10,2013-04-01 12:55:00,
2013-04-01 09:10:00,73.1,69.0,30.05,ESE,118,0.0,3.0,88,0.00,,,0.00,weatherlink.com 1.10,2013-04-01 13:10:00,
2013-04-01 09:26:00,74.5,71.0,30.05,ESE,114,2.0,3.0,87,0.00,,,0.00,weatherlink.com 1.10,2013-04-01 13:26:00,
2013-04-01 09:41:00,75.7,71.0,30.05,SE,142,0.0,2.0,85,0.00,,,0.00,weatherlink.com 1.10,2013-04-01 13:41:00,
2013-04-01 09:56:00,77.2,72.0,30.05,SE,127,0.0,4.0,83,0.00,,,0.00,weatherlink.com 1.10,2013-04-01 13:56:00,
2013-04-01 10:11:00,78.3,72.0,30.05,West,267,0.0,2.0,81,0.00,,,0.00,weatherlink.com 1.10,2013-04-01 14:11:00,
2013-04-01 10:41:00,81.2,71.0,30.05,East,87,1.0,3.0,71,0.00,,,0.00,weatherlink.com 1.10,2013-04-01 14:41:00,
2013-04-01 10:56:00,81.1,71.0,30.05,SW,235,0.0,3.0,71,0.00,,,0.00,weatherlink.com 1.10,2013-04-01 14:56:00,
2013-04-01 11:11:00,80.9,71.0,30.05,ESE,123,2.0,3.0,72,0.00,,,0.00,weatherlink.com 1.10,2013-04-01 15:11:00,
2013-04-01 11:26:00,80.7,70.0,30.04,ESE,114,0.0,3.0,70,0.00,,,0.00,weatherlink.com 1.10,2013-04-01 15:26:00,
2013-04-01 11:56:00,82.0,66.0,30.04,WSW,253,1.0,4.0,59,0.00,,,0.00,weatherlink.com 1.10,2013-04-01 15:56:00,
2013-04-01 12:11:00,82.2,66.0,30.04,WSW,252,2.0,5.0,59,0.00,,,0.00,weatherlink.com 1.10,2013-04-01 16:11:00,
2013-04-01 12:26:00,83.4,67.0,30.04,WSW,238,2.0,4.0,57,0.00,,,0.00,weatherlink.com 1.10,2013-04-01 16:26:00,
2013-04-01 12:41:00,84.6,67.0,30.03,SW,235,0.0,3.0,56,0.00,,,0.00,weatherlink.com 1.10,2013-04-01 16:41:00,
2013-04-01 13:26:00,84.6,65.0,30.01,SSE,159,1.0,4.0,52,0.00,,,0.00,weatherlink.com 1.10,2013-04-01 17:26:00,
2013-04-01 13:41:00,83.7,67.0,30.01,WSW,253,0.0,4.0,57,0.00,,,0.00,weatherlink.com 1.10,2013-04-01 17:41:00,
2013-04-01 13:56:00,84.7,68.0,30.00,WNW,282,2.0,3.0,57,0.00,,,0.00,weatherlink.com 1.10,2013-04-01 17:56:00,
2013-04-01 14:11:00,85.5,66.0,29.99,WNW,287,3.0,6.0,53,0.00,,,0.00,weatherlink.com 1.10,2013-04-01 18:11:00,
2013-04-01 14:26:00,86.2,66.0,29.98,SSW,200,1.0,4.0,51,0.00,,,0.00,weatherlink.com 1.10,2013-04-01 18:26:00,
2013-04-01 14:41:00,86.4,65.0,29.98,WSW,256,0.0,5.0,49,0.00,,,0.00,weatherlink.com 1.10,2013-04-01 18:41:00,
2013-04-01 14:56:00,86.0,65.0,29.98,ESE,121,1.0,4.0,50,0.00,,,0.00,weatherlink.com 1.10,2013-04-01 18:56:00,
2013-04-01 15:11:00,82.6,68.0,29.98,SE,139,1.0,4.0,62,0.00,,,0.00,weatherlink.com 1.10,2013-04-01 19:11:00,
2013-04-01 15:26:00,80.7,68.0,29.98,SE,124,1.0,5.0,66,0.00,,,0.00,weatherlink.com 1.10,2013-04-01 19:26:00,
2013-04-01 15:41:00,79.2,69.0,29.98,ESE,113,3.0,3.0,70,0.00,,,0.00,weatherlink.com 1.10,2013-04-01 19:41:00,
2013-04-01 15:56:00,76.8,67.0,29.97,ESE,122,3.0,5.0,71,0.00,,,0.00,weatherlink.com 1.10,2013-04-01 19:56:00,
2013-04-01 16:11:00,75.4,67.0,29.98,ESE,122,1.0,2.0,74,0.00,,,0.00,weatherlink.com 1.10,2013-04-01 20:11:00,
2013-04-01 16:27:00,77.0,67.0,29.97,ESE,114,2.0,6.0,71,0.00,,,0.00,weatherlink.com 1.10,2013-04-01 20:27:00,
2013-04-01 16:42:00,76.6,66.0,29.97,East,93,1.0,4.0,70,0.00,,,0.00,weatherlink.com 1.10,2013-04-01 20:42:00,
2013-04-01 16:57:00,76.3,65.0,29.96,ESE,121,0.0,3.0,69,0.00,,,0.00,weatherlink.com 1.10,2013-04-01 20:57:00,
2013-04-01 17:12:00,76.6,66.0,29.96,ESE,115,0.0,1.0,69,0.00,,,0.00,weatherlink.com 1.10,2013-04-01 21:12:00,
2013-04-01 17:27:00,77.9,68.0,29.95,ESE,118,0.0,1.0,71,0.00,,,0.00,weatherlink.com 1.10,2013-04-01 21:27:00,
2013-04-01 17:42:00,78.3,68.0,29.96,ESE,113,0.0,1.0,70,0.00,,,0.00,weatherlink.com 1.10,2013-04-01 21:42:00,
2013-04-01 17:57:00,78.3,68.0,29.96,ESE,117,1.0,2.0,70,0.00,,,0.00,weatherlink.com 1.10,2013-04-01 21:57:00,
2013-04-01 18:12:00,77.9,67.0,29.96,ESE,108,0.0,2.0,70,0.00,,,0.00,weatherlink.com 1.10,2013-04-01 22:12:00,
2013-04-01 18:27:00,77.1,67.0,29.97,SE,124,0.0,1.0,70,0.00,,,0.00,weatherlink.com 1.10,2013-04-01 22:27:00,
2013-04-01 18:42:00,76.6,66.0,29.97,ESE,121,0.0,1.0,69,0.00,,,0.00,weatherlink.com 1.10,2013-04-01 22:42:00,
2013-04-01 18:57:00,74.6,67.0,29.98,ESE,107,0.0,1.0,78,0.01,,,0.01,weatherlink.com 1.10,2013-04-01 22:57:00,
2013-04-01 19:12:00,70.6,67.0,29.98,ESE,116,0.0,1.0,87,0.08,,,0.08,weatherlink.com 1.10,2013-04-01 23:12:00,
2013-04-01 19:27:00,69.8,67.0,29.98,ESE,117,0.0,0.0,89,0.08,,,0.08,weatherlink.com 1.10,2013-04-01 23:27:00,
2013-04-01 19:42:00,69.8,67.0,29.98,ESE,117,0.0,0.0,92,0.08,,,0.08,weatherlink.com 1.10,2013-04-01 23:42:00,
2013-04-01 20:12:00,69.4,67.0,29.99,ESE,117,0.0,0.0,92,0.00,,,0.08,weatherlink.com 1.10,2013-04-02 00:12:00,
2013-04-01 20:27:00,69.4,67.0,30.00,ESE,117,0.0,0.0,92,0.00,,,0.08,weatherlink.com 1.10,2013-04-02 00:27:00,
2013-04-01 20:42:00,69.3,67.0,30.00,ESE,117,0.0,0.0,92,0.00,,,0.08,weatherlink.com 1.10,2013-04-02 00:42:00,
2013-04-01 20:57:00,69.2,67.0,30.00,ESE,118,0.0,0.0,92,0.00,,,0.08,weatherlink.com 1.10,2013-04-02 00:57:00,
2013-04-01 21:12:00,68.7,66.0,30.00,ESE,117,0.0,0.0,92,0.00,,,0.08,weatherlink.com 1.10,2013-04-02 01:12:00,
2013-04-01 21:27:00,68.2,66.0,30.01,ESE,117,0.0,0.0,93,0.00,,,0.08,weatherlink.com 1.10,2013-04-02 01:27:00,
2013-04-01 21:42:00,67.8,66.0,30.01,ESE,117,0.0,0.0,93,0.00,,,0.08,weatherlink.com 1.10,2013-04-02 01:42:00,
2013-04-01 21:58:00,67.6,66.0,30.02,ESE,117,0.0,0.0,93,0.00,,,0.08,weatherlink.com 1.10,2013-04-02 01:58:00,
2013-04-01 22:12:00,67.2,65.0,30.02,ESE,117,0.0,0.0,93,0.00,,,0.08,weatherlink.com 1.10,2013-04-02 02:12:00,
2013-04-01 22:27:00,66.7,65.0,30.02,ESE,117,0.0,0.0,93,0.00,,,0.08,weatherlink.com 1.10,2013-04-02 02:27:00,
2013-04-01 22:42:00,66.2,64.0,30.02,ESE,117,0.0,0.0,93,0.00,,,0.08,weatherlink.com 1.10,2013-04-02 02:42:00,
2013-04-01 22:57:00,66.0,64.0,30.02,ESE,117,0.0,0.0,94,0.00,,,0.08,weatherlink.com 1.10,2013-04-02 02:57:00,
2013-04-01 23:12:00,65.7,64.0,30.02,ESE,117,0.0,0.0,94,0.00,,,0.08,weatherlink.com 1.10,2013-04-02 03:12:00,
2013-04-01 23:27:00,65.5,64.0,30.02,ESE,117,0.0,0.0,94,0.00,,,0.08,weatherlink.com 1.10,2013-04-02 03:27:00,
2013-04-01 23:42:00,65.5,64.0,30.02,ESE,117,0.0,0.0,94,0.00,,,0.08,weatherlink.com 1.10,2013-04-02 03:42:00,
2013-04-01 23:57:00,65.1,63.0,30.03,ESE,117,0.0,0.0,94,0.00,,,0.08,weatherlink.com 1.10,2013-04-02 03:57:00,